UB3APB-W3 Weather Reports


time (UTC)temp
C
wind
direction
speed
KPH
gust
KPH
rain 1hr
cm
rain 24hr
cm
rain mn
cm
humidity
%
barometer
mb
20260507013248 9 0.0 0.0 0.00 0.00 0.00 14.0
20260507012740 9 0.0 0.0 0.00 0.00 0.00 14.0
20260507012233 9 0.0 0.0 0.00 0.00 0.00 14.0
20260507011723 10 0.0 0.0 0.00 0.00 0.00 14.0
20260507001151 10 0.0 0.0 0.00 0.00 0.00 14.0
20260507000644 10 0.0 0.0 0.00 0.00 0.00 13.9
20260507000137 10 0.0 0.0 0.00 0.00 0.00 14.0
20260506235630 10 0.0 0.0 0.00 0.00 0.00 14.1
20260506235123 10 0.0 0.0 0.00 0.00 0.00 14.3
20260506224940 11 0.0 0.0 0.00 0.00 0.00 14.3
20260506224430 11 0.0 0.0 0.00 0.00 0.00 14.4
20260506223923 11 0.0 0.0 0.00 0.00 0.00 14.5
20260506223413 11 0.0 0.0 0.00 0.00 0.00 14.4
20260506213227 12 0.0 0.0 0.00 0.00 0.00 14.4
20260506212722 12 0.0 0.0 0.00 0.00 0.00 14.5
20260506212214 12 0.0 0.0 0.00 0.00 0.00 14.6
20260506211705 12 0.0 0.0 0.00 0.00 0.00 14.7
20260506201145 13 0.0 0.0 0.00 0.00 0.00 14.7
20260506200133 13 0.0 0.0 0.00 0.00 0.00 14.6
20260506195626 13 0.0 0.0 0.00 0.00 0.00 14.6
20260506195117 13 0.0 0.0 0.00 0.00 0.00 14.7
20260506184932 15 0.0 0.0 0.00 0.00 0.00 14.5
20260506184426 15 0.0 0.0 0.00 0.00 0.00 14.3
20260506183919 15 0.0 0.0 0.00 0.00 0.00 14.3
20260506183413 15 0.0 0.0 0.00 0.00 0.00 14.3
20260506173241 17 0.0 0.0 0.00 0.00 0.00 14.3
20260506172735 17 0.0 0.0 0.00 0.00 0.00 14.2
20260506172228 18 0.0 0.0 0.00 0.00 0.00 14.2
20260506171722 17 0.0 0.0 0.00 0.00 0.00 14.2
20260506161140 22 0.0 0.0 0.00 0.00 0.00 12.2
20260506160633 22 0.0 0.0 0.00 0.00 0.00 12.1
20260506160126 23 0.0 0.0 0.00 0.00 0.00 12.1
20260506155619 22 0.0 0.0 0.00 0.00 0.00 11.9
20260506155112 23 0.0 0.0 0.00 0.00 0.00 12.0
20260506144937 25 0.0 0.0 0.00 0.00 0.00 10.9
20260506144434 24 0.0 0.0 0.00 0.00 0.00 11.4
20260506143922 24 0.0 0.0 0.00 0.00 0.00 11.1
20260506143416 24 0.0 0.0 0.00 0.00 0.00 10.9
20260506133243 25 0.0 0.0 0.00 0.00 0.00 10.7
20260506132734 25 0.0 0.0 0.00 0.00 0.00 10.3
20260506132228 25 0.0 0.0 0.00 0.00 0.00 10.3
20260506131721 25 0.0 0.0 0.00 0.00 0.00 10.6
20260506121541 26 0.0 0.0 0.00 0.00 0.00 10.2
20260506121032 26 0.0 0.0 0.00 0.00 0.00 10.1
20260506120525 26 0.0 0.0 0.00 0.00 0.00 9.8
20260506120024 26 0.0 0.0 0.00 0.00 0.00 11.0
20260506115524 25 0.0 0.0 0.00 0.00 0.00 11.4
20260506104944 24 0.0 0.0 0.00 0.00 0.00 11.9
20260506104437 25 0.0 0.0 0.00 0.00 0.00 11.9
20260506103928 25 0.0 0.0 0.00 0.00 0.00 11.8
20260506103420 25 0.0 0.0 0.00 0.00 0.00 12.8
20260506093229 23 0.0 0.0 0.00 0.00 0.00 12.0
20260506092722 23 0.0 0.0 0.00 0.00 0.00 12.6
20260506092216 23 0.0 0.0 0.00 0.00 0.00 12.7
20260506091706 23 0.0 0.0 0.00 0.00 0.00 12.6
20260506081145 23 0.0 0.0 0.00 0.00 0.00 12.5
20260506080640 23 0.0 0.0 0.00 0.00 0.00 12.5
20260506080134 23 0.0 0.0 0.00 0.00 0.00 12.4
20260506041646 17 0.0 0.0 0.00 0.00 0.00 12.4
20260506041139 17 0.0 0.0 0.00 0.00 0.00 12.7
20260506040632 16 0.0 0.0 0.00 0.00 0.00 12.8
20260506040126 16 0.0 0.0 0.00 0.00 0.00 12.6
20260506035620 16 0.0 0.0 0.00 0.00 0.00 12.8
20260506035114 15 0.0 0.0 0.00 0.00 0.00 12.9
20260506024926 10 0.0 0.0 0.00 0.00 0.00 13.3
20260506024419 10 0.0 0.0 0.00 0.00 0.00 13.3
20260506023913 10 0.0 0.0 0.00 0.00 0.00 13.3
20260506023413 10 0.0 0.0 0.00 0.00 0.00 13.2